Regional Weather Roundup
Issued by NWS

Home | Current Version | Previous Version | Graphics & Text | Print | Product List | Glossary Off
Versions: 1 2 3 4 5 6 7 8 9 10 11 12 13 14 15 16 17 18 19 20 21 22 23 24 25 26 27 28 29 30 31 32 33 34 35 36 37 38 39 40 41 42 43 44 45 46 47 48 49 50

000
ASUS43 KTOP 270508
RWRKS

WEATHER ROUNDUP FOR KANSAS
NATIONAL WEATHER SERVICE GOODLAND KS
1200 AM CDT MON MAR 27 2017

NOTE:  "FAIR" INDICATES FEW OR NO CLOUDS BELOW 12,000 FEET WITH NO
SIGNIFICANT WEATHER AND/OR OBSTRUCTIONS TO VISIBILITY.

KSZ001>006-013>018-027>032-041>047-270600-
NORTHWEST KANSAS

CITY           SKY/WX    TMP DP  RH WIND       PRES   REMARKS
GOODLAND       CLEAR     38  37  97 S6        29.95S
HAYS             N/A     46  45  96 N7        29.93S
HILL CITY      CLOUDY    45  44  97 CALM      29.92F
RUSSELL        CLOUDY    46  45  96 N9        29.90F
$$

KSZ061>065-074>080-084>089-270600-
SOUTHWEST KANSAS

CITY           SKY/WX    TMP DP  RH WIND       PRES   REMARKS
DODGE CITY     CLOUDY    44  42  93 N15       29.92F
ELKHART          N/A     39  32  76 NW6         N/A
GARDEN CITY    MOCLDY    41  39  93 NW7       29.95R
GREAT BEND     LGT RAIN  46  45  96 N10       29.90F
LIBERAL        CLOUDY    45  37  76 N15       29.97S
PRATT          CLOUDY    44  43  98 N16       29.88S
$$

KSZ066>073-081>083-090>101-270600-
SOUTHEAST KANSAS

CITY           SKY/WX    TMP DP  RH WIND       PRES   REMARKS
CHANUTE        RAIN      52  49  89 N15G31    29.88R FOG
COFFEYVILLE    TSTM      54  52  93 NE13      29.81R FOG
HUTCHINSON     CLOUDY    47  46  97 N10       29.85S
MEDICINE LODGE   N/A     47  44  90 N9        29.85R
NEWTON         CLOUDY    47  46  97 NE6       29.85R
PARSONS        LGT RAIN  55  50  83 N18G24    29.85R
WICHITA INTL   CLOUDY    50  49  96 NE12      29.82S
WICHITA JABRA  CLOUDY    49  48  97 NE9       29.82R
WICHITA MCCONL CLOUDY    50  48  94 NE14      29.82R
WINFIELD       CLOUDY    52  48  86 N12       29.80R
$$

KSZ007>012-019>026-033>040-048>060-102>105-270600-
NORTHEAST KANSAS

CITY           SKY/WX    TMP DP  RH WIND       PRES   REMARKS
CONCORDIA      CLOUDY    46  45  96 NE7       29.90F
EMPORIA        LGT RAIN  47  47 100 N14       29.83F FOG
LAWRENCE       LGT RAIN  48  47  96 N7        29.91F FOG
MANHATTAN      CLOUDY    48  46  93 E12       29.90F
MARYSVILLE     CLOUDY    45  43  93 NE6       29.91S
OLATHE IND     HVY RAIN  48  46  93 N12       29.89S FOG
OLATHE EXE     CLOUDY    48  46  93 NE14      29.87F
SALINA         CLOUDY    49  47  93 NE9       29.89F
TOPEKA BILLARD RAIN      48  48 100 NE9       29.90F FOG
TOPEKA FORBES  LGT RAIN  48  47  96 NE9       29.89F FOG
$$



USA.gov is the U.S. government's official web portal to all federal, state and local government web resources and services.